Location: Unspecified
(64.9000°N, 0.0000°E)
Time: 14:43:09
(UTC+00:00)

A-11 Canister half - Pass Details

Date: 17 June 2019
Orbit: 1526 x 1683 km, 47.3° (Epoch: 16 July)

Event Time Altitude Azimuth Distance (km) Brightness Sun altitude
Rises 08:41:50 0° 243° (WSW) 4,687 11.3 37.7°
Reaches altitude 10° 08:45:29 10° 232° (SW) 3,697 10.9 38.0°
Maximum altitude 08:52:40 26° 180° (S) 2,648 10.9 38.7°
Drops below altitude 10° 08:59:52 10° 129° (SE) 3,713 12.2 39.3°
Sets 09:03:33 0° 118° (ESE) 4,711 12.4 39.6°
